(192777) = 1999 UU17

Discovered at Kitt Peak on 1999-10-30 by Spacewatch.

Orbit

Orbit type: Main Belt

Note: WebGL enabled browser required.

epoch2024-03-31.0
epoch JD2460400.5
perihelion date2021-09-01.44915
perihelion JD2459458.94915
argument of perihelion (°)273.81008
ascending node (°)56.16193
inclination (°)2.80852
eccentricity0.0811959
perihelion distance (AU)2.4948226
Tisserand w.r.t. Jupiter3.4
ΔV w.r.t. Earth (km/sec)9.9
semimajor axis (AU)2.7152934
mean anomaly (°)207.40655
mean daily motion (°/day)0.22028180
aphelion distance (AU)2.936
period (years)4.47
P-vector [x]0.86478560
P-vector [y]-0.43906943
P-vector [z]-0.24364708
Q-vector [x]0.50048924
Q-vector [y]0.79300270
Q-vector [z]0.34735750
absolute magnitude16.74
phase slope0.15
uncertainty0
referenceMPEC 2024-F14
observations used307
oppositions15
arc length (days)8931
first opposition used1999
last opposition used2024
residual rms (arc-secs)0.80
perturbers coarse indicatorM-v
perturbers precise indicator003Ek
first observation date used1999-10-04.0
last observation date used2024-03-17.0
computer nameMPCLINUX
JD of orbit computation2456670.990119
perihelion JD uncertainty (days)1.5818E-04
argument of perihelion uncertainty (°)9.8978E-05
ascending node uncertainty (°)9.2998E-05
inclination uncertainty (°)5.2695E-06
eccentricity uncertainty 4.4657E-08
perihelion distance uncertainty (AU)1.2173E-07
Minimum Orbit Intersection Distances (in AU)
for orbit epoch: 2460400.5, reference: E2024-GH2
Mercury2.07804
Venus1.76688
Earth1.48555
Mars1.11168
Jupiter2.31408
Saturn6.19641
Uranus15.5116
Neptune27.1615

Observations

311 total observations over interval: 1999 10 04.30835 – 2024 03 17.384181
These data are available for download (format description).

Date (UT) J2000 RA J2000 Dec Magn Location Ref
1999 10 04.30835 01 02 09.30 +03 12 52.1 19.6 V 691 – Steward Observatory, Kitt Peak-Spacewatch MPS 19113
1999 10 04.32922 01 02 08.19 +03 12 46.4 19.6 V 691 – Steward Observatory, Kitt Peak-Spacewatch MPS 19113
1999 10 04.35009 01 02 07.07 +03 12 41.1 19.8 V 691 – Steward Observatory, Kitt Peak-Spacewatch MPS 19113
1999 10 11.26103 00 56 10.32 +02 42 31.9 19.3 V 691 – Steward Observatory, Kitt Peak-Spacewatch MPS 13948
1999 10 11.28214 00 56 09.20 +02 42 26.7 19.5 V 691 – Steward Observatory, Kitt Peak-Spacewatch MPS 13948
1999 10 11.30422 00 56 08.00 +02 42 21.0 19.6 V 691 – Steward Observatory, Kitt Peak-Spacewatch MPS 13948
1999 10 17.29494 00 51 05.94 +02 18 08.9 20.7 V 691 – Steward Observatory, Kitt Peak-Spacewatch MPS 13948
1999 10 17.32234 00 51 04.57 +02 18 02.6 20.4 V 691 – Steward Observatory, Kitt Peak-Spacewatch MPS 13948
1999 10 17.35175 00 51 03.07 +02 17 56.0 20.8 V 691 – Steward Observatory, Kitt Peak-Spacewatch MPS 13948
1999 10 30.25155 00 41 40.78 +01 37 57.0 20.8 V 691 – Steward Observatory, Kitt Peak-Spacewatch MPS 7417
1999 10 30.27274 00 41 39.98 +01 37 54.3 21.0 V 691 – Steward Observatory, Kitt Peak-Spacewatch MPS 7417
1999 10 30.29395 00 41 39.11 +01 37 51.5 20.9 V 691 – Steward Observatory, Kitt Peak-Spacewatch MPS 7417
1999 11 04.14387 00 38 55.45 +01 28 31.8 20.9 V 691 – Steward Observatory, Kitt Peak-Spacewatch MPS 7417
1999 11 04.16657 00 38 54.73 +01 28 29.7 21.0 V 691 – Steward Observatory, Kitt Peak-Spacewatch MPS 7417
1999 11 04.18766 00 38 54.02 +01 28 28.1 20.9 V 691 – Steward Observatory, Kitt Peak-Spacewatch MPS 7417
2002 04 08.26468 13 32 21.09 -07 00 18.9 21.3   644 – Palomar Mountain/NEAT MPS 59643
2002 04 08.33068 13 32 17.63 -07 00 02.3 20.6   644 – Palomar Mountain/NEAT MPS 59643
2002 04 08.39381 13 32 14.31 -06 59 46.0 21.0   644 – Palomar Mountain/NEAT MPS 59643
2002 04 22.21217 13 20 27.04 -06 01 17.0 20.9 V 691 – Steward Observatory, Kitt Peak-Spacewatch MPS 59643
2002 04 22.21628 13 20 26.87 -06 01 15.7 20.8 V 691 – Steward Observatory, Kitt Peak-Spacewatch MPS 59643
2002 04 22.22014 13 20 26.65 -06 01 15.4 21.2 V 691 – Steward Observatory, Kitt Peak-Spacewatch MPS 59643
2006 01 23.47006 11 21 00.35 +08 20 07.6 21.7 V 691 – Steward Observatory, Kitt Peak-Spacewatch MPS 163565
2006 01 23.48733 11 21 00.08 +08 20 10.2 21.4 V 691 – Steward Observatory, Kitt Peak-Spacewatch MPS 163565
2006 01 23.50572 11 20 59.74 +08 20 13.9 21.6 V 691 – Steward Observatory, Kitt Peak-Spacewatch MPS 163565
2006 01 28.46473 11 19 21.01 +08 35 39.3 21.2 V 691 – Steward Observatory, Kitt Peak-Spacewatch MPS 161573
2006 01 28.48196 11 19 20.65 +08 35 43.3 21.3 V 691 – Steward Observatory, Kitt Peak-Spacewatch MPS 161573
2006 01 28.49927 11 19 20.17 +08 35 46.3 20.9 V 691 – Steward Observatory, Kitt Peak-Spacewatch MPS 161573
2006 03 04.27534 10 55 08.47 +11 20 34.2 20.9 V G96 – Mt. Lemmon Survey MPS 165896
2006 03 04.28506 10 55 07.93 +11 20 37.1 20.6 V G96 – Mt. Lemmon Survey MPS 165896
2006 03 04.29485 10 55 07.57 +11 20 40.1 20.4 V G96 – Mt. Lemmon Survey MPS 165896
2006 03 04.30449 10 55 06.92 +11 20 42.6 21.0 V G96 – Mt. Lemmon Survey MPS 165896
2008 09 20.25708 01 39 43.73 +07 13 19.2   691 – Steward Observatory, Kitt Peak-Spacewatch MPS 256500
2008 09 20.27465 01 39 43.07 +07 13 15.9   691 – Steward Observatory, Kitt Peak-Spacewatch MPS 256500
2008 09 20.29221 01 39 42.42 +07 13 13.2   691 – Steward Observatory, Kitt Peak-Spacewatch MPS 256500
2008 09 24.29889 01 37 08.09 +06 59 42.8 20.3 V 691 – Steward Observatory, Kitt Peak-Spacewatch MPS 256500
2008 09 24.31649 01 37 07.34 +06 59 38.8 20.4 V 691 – Steward Observatory, Kitt Peak-Spacewatch MPS 256500
2008 09 24.33408 01 37 06.57 +06 59 35.0 20.3 V 691 – Steward Observatory, Kitt Peak-Spacewatch MPS 256500
2008 09 28.24375 01 34 18.27 +06 45 05.7 19.6   704 – Lincoln Laboratory ETS, New Mexico MPS 257722
2008 09 28.25591 01 34 17.69 +06 45 03.3 19.9   704 – Lincoln Laboratory ETS, New Mexico MPS 257722
2008 09 28.26806 01 34 17.12 +06 45 00.9 20.1   704 – Lincoln Laboratory ETS, New Mexico MPS 257722
2008 09 28.28021 01 34 16.59 +06 44 57.4 20.4   704 – Lincoln Laboratory ETS, New Mexico MPS 257722
2008 10 02.21034 01 31 12.62 +06 29 22.8 20.2 V 691 – Steward Observatory, Kitt Peak-Spacewatch MPS 257722
2008 10 02.22793 01 31 11.75 +06 29 18.3 20.3 V 691 – Steward Observatory, Kitt Peak-Spacewatch MPS 257722
2008 10 02.24551 01 31 10.86 +06 29 14.5 20.3 V 691 – Steward Observatory, Kitt Peak-Spacewatch MPS 257722
2008 10 06.21229 01 27 53.76 +06 12 50.8 19.9 V 691 – Steward Observatory, Kitt Peak-Spacewatch MPS 259070
2008 10 06.22986 01 27 52.84 +06 12 46.1 20.7 V 691 – Steward Observatory, Kitt Peak-Spacewatch MPS 259070
2008 10 06.24743 01 27 51.92 +06 12 42.0 20.2 V 691 – Steward Observatory, Kitt Peak-Spacewatch MPS 259070
2008 10 23.23734 01 13 14.19 +05 03 34.1 20.0 V G96 – Mt. Lemmon Survey MPS 260478
2008 10 23.24385 01 13 13.83 +05 03 32.1 20.2 V G96 – Mt. Lemmon Survey MPS 260478
2008 10 23.25037 01 13 13.47 +05 03 31.4 19.6 V G96 – Mt. Lemmon Survey MPS 260478
2008 10 23.25687 01 13 13.18 +05 03 29.1 19.6 V G96 – Mt. Lemmon Survey MPS 260478
2008 10 30.19335 01 07 48.43 +04 40 16.7 21.1 V 703 – Catalina Sky Survey MPS 261241
2008 10 30.20119 01 07 48.18 +04 40 16.9 20.4 V 703 – Catalina Sky Survey MPS 261241
2008 10 30.20901 01 07 47.74 +04 40 13.0 20.4 V 703 – Catalina Sky Survey MPS 261241
2008 10 30.21684 01 07 47.38 +04 40 14.1 21.1 V 703 – Catalina Sky Survey MPS 261241
2008 11 07.14932 01 02 36.09 +04 20 31.4 20.7 V G96 – Mt. Lemmon Survey MPS 262984
2008 11 07.15612 01 02 35.80 +04 20 29.7 20.3 V G96 – Mt. Lemmon Survey MPS 262984
2008 11 07.16298 01 02 35.55 +04 20 29.6 20.0 V G96 – Mt. Lemmon Survey MPS 262984
2008 11 07.16988 01 02 35.41 +04 20 28.6 19.8 V G96 – Mt. Lemmon Survey MPS 262984
2008 12 04.12456 00 56 05.67 +04 23 07.1 20.9 V G96 – Mt. Lemmon Survey MPS 268697
2008 12 04.13292 00 56 05.71 +04 23 08.5 20.9 V G96 – Mt. Lemmon Survey MPS 268697
2008 12 04.14118 00 56 05.71 +04 23 09.6 20.7 V G96 – Mt. Lemmon Survey MPS 268697
2008 12 04.14957 00 56 05.78 +04 23 10.7 20.9 V G96 – Mt. Lemmon Survey MPS 268697
2008 12 31.10351 01 07 17.11 +06 08 45.0 21.5 V G96 – Mt. Lemmon Survey MPS 271643
2008 12 31.11185 01 07 17.47 +06 08 47.9 21.5 V G96 – Mt. Lemmon Survey MPS 271643
2008 12 31.12017 01 07 17.83 +06 08 50.2 21.7 V G96 – Mt. Lemmon Survey MPS 271643
2008 12 31.12844 01 07 18.19 +06 08 52.4 21.9 V G96 – Mt. Lemmon Survey MPS 271643
2009 11 21.40355 08 43 08.61 +20 59 16.6 22.0 V G96 – Mt. Lemmon Survey MPS 306501
2009 11 21.41194 08 43 08.79 +20 59 16.5 22.0 V G96 – Mt. Lemmon Survey MPS 306501
2009 11 21.42021 08 43 08.94 +20 59 16.3 21.3 V G96 – Mt. Lemmon Survey MPS 306501
2009 11 21.42834 08 43 09.04 +20 59 17.2 21.2 V G96 – Mt. Lemmon Survey MPS 306501
2010 02 15.10391 07 53 19.80 +24 44 57.4 20.8 V 691 – Steward Observatory, Kitt Peak-Spacewatch MPS 316367
2010 02 15.13453 07 53 18.55 +24 44 59.2 21.0 V 691 – Steward Observatory, Kitt Peak-Spacewatch MPS 316367
2010 02 15.15067 07 53 17.80 +24 45 00.8 21.1 V 691 – Steward Observatory, Kitt Peak-Spacewatch MPS 316367
2011 03 28.27905 14 02 23.17 -10 00 38.1 20.9 V 691 – Steward Observatory, Kitt Peak-Spacewatch MPS 376898
2011 03 28.29682 14 02 22.46 -10 00 34.6 21.2 V 691 – Steward Observatory, Kitt Peak-Spacewatch MPS 376898
2011 03 28.31460 14 02 21.74 -10 00 31.2 20.9 V 691 – Steward Observatory, Kitt Peak-Spacewatch MPS 376898
2011 04 01.28923 13 59 38.72 -09 47 14.7 21.0 V 691 – Steward Observatory, Kitt Peak-Spacewatch MPS 376898
2011 04 01.30702 13 59 37.94 -09 47 10.7 20.8 V 691 – Steward Observatory, Kitt Peak-Spacewatch MPS 376898
2011 04 01.32478 13 59 37.15 -09 47 07.3 20.6 V 691 – Steward Observatory, Kitt Peak-Spacewatch MPS 376898
2011 04 13.28499 13 50 06.81 -09 01 26.8 20.5 V 691 – Steward Observatory, Kitt Peak-Spacewatch MPS 379526
2011 04 13.30276 13 50 05.89 -09 01 22.4 20.4 V 691 – Steward Observatory, Kitt Peak-Spacewatch MPS 379526
2011 04 13.32055 13 50 04.96 -09 01 18.4 20.6 V 691 – Steward Observatory, Kitt Peak-Spacewatch MPS 379526
2011 04 23.46551 13 41 19.399 -08 20 15.38 20.6 r F51 – Pan-STARRS 1, Haleakala MPS 380971
